COSMOS 2251 DEB, 34273

Orbit data source: Space-Track

COSMOS 2251 DEB, 34273 is space debris in LEO originally from a launch on Wed, 16 Jun 1993 UTC launched from the Plesetsk Missile And Space Complex (PKMTR). The debris from Iridium 33, an American commercial communications satellite, has been tracked extensively since its accidental collision with the defunct Russian satellite Cosmos 2251 in 2009. This event, occurring at high speed in low Earth orbit (LEO), generated thousands of pieces of space debris, significantly increasing the risk of further collisions. The Iridium 33 debris cloud has impacted space traffic management and orbital debris mitigation strategies, making it a subject of ongoing study in space situational awareness.

Loading next visibility...
Identifier
34273, 1993-036LT
Orbit
LEO
Country
Flag of CISCIS
Related business
Manufacturer
Unknown
Mission
Spacecraft
Bus & Motor
Unknown
Mass
Unknown
Launch date (UTC)
1993-06-16 (33 years ago)
Launch vehicle
Unknown
Launch site
Plesetsk Missile And Space Complex (PKMTR)
Object type
Payload
Rocket body
Debris
Shape & HBR
Unknown shape, 0.1 m
Radar Cross Section
Small (<0.1 m²)

Expand to show TLE details & history
Last TLE update: 8 hours ago

TLE from 8 hours ago
0 COSMOS 2251 DEB
1 34273U 93036LT  26123.57875346  .00003079  00000-0  61156-3 0  9990
2 34273  74.0350 175.9209 0015823 261.1036 249.2988 14.62528129906941
Epoch: 2026-05-03T13:53Z
TLE epoch observation values (Epoch: 2026-05-03T13:53:24.298Z)
Latitude
28.56348°
Longitude
-82.82184°
Altitude
692.227 km
Speed
7.511 km/s
True Right ascension
23h 08m 02s
True Declination
28° 25' 05"
Sunlit
Object was in daylight at epoch
Visualization orbit readout
Latitude
Unknown
Longitude
Unknown
Altitude
Unknown
Speed
Unknown
Apparent Right ascension
Unknown
Apparent Declination
Unknown
Sunlit
N/A
Visualization observer readout
Local Sidereal Time
05:35:42
Azimuth
Unknown
Elevation
Unknown
Doppler factor
Unknown
Orbital elements
Apogee altitude
693.79 km
Perigee altitude
671.445 km
Semi-major axis
7,060.754 km
Eccentricity
0.00158
Inclination
74.035°
RAAN
175.9209°
Arg. of periapsis
261.1036°
True anomaly
249.12931°
Mean anomaly
249.2988°
Eccentric anomaly
249.21404°
Mean motion
3.65819 °/min
Orbital period
98.41 mins
BSTAR
0.00061156
Loading maneuver chart data...
Computing Atmospheric mass density...

Documentation

Showing up to 5 results
|